Location: Unnamed
(48.6007°N, 2.4808°E)
Time: 21:12:39
(UTC+02:00)

METEOR M2 - Pass Details

Date: 31 March 2023
Orbit: 818 x 827 km, 98.4° (Epoch: 01 June)

Event Time Altitude Azimuth Distance (km) Brightness Sun altitude
Rises 06:36:30 0° 32° (NNE) 3,372 ? -9.6°
Reaches altitude 10° 06:40:50 10° 66° (ENE) 2,429 ? -8.9°
Maximum altitude 06:42:31 11° 84° (E) 2,328 ? -8.7°
Drops below altitude 10° 06:44:11 10° 103° (ESE) 2,422 ? -8.4°
Sets 06:48:28 0° 136° (SE) 3,344 ? -7.7°
